Location: Moscow
(30.9132°N, 94.8252°W)
Time: 12:51:22
(UTC+00:00)

ISS - Pass Details

Date: 15 November 2025
Orbit: 416 x 420 km, 51.6° (Epoch: 10 December)

Event Time Altitude Azimuth Distance (km) Brightness Sun altitude
Rises 00:00:56 0° 251° (WSW) 2,359 2.5 -8.8°
Reaches altitude 10° 00:03:18 10° 266° (W) 1,496 0.6 -9.3°
Maximum altitude 00:06:03 23° 322° (NW) 936 -1.7 -9.8°
Drops below altitude 10° 00:08:49 10° 17° (NNE) 1,497 -1.3 -10.4°
Enters shadow 00:09:44 - 24° (NNE) 1,810 -0.9 -10.6°
